Regional Weather Roundup
Issued by NWS Sterling, VA

Home | Current Version | Previous Version | Graphics & Text | Print | Product List | Glossary On
Versions: 1 2 3 4 5 6 7 8 9 10 11 12 13 14 15 16 17 18 19 20 21 22 23 24 25 26 27 28 29 30 31 32 33 34 35 36 37 38 39 40 41 42 43 44 45 46 47 48 49 50
000
ASUS41 KLWX 050510
RWRLWX

REGIONAL WEATHER ROUNDUP
NATIONAL WEATHER SERVICE BALTIMORE MD/WASHINGTON DC
1200 AM EST THU MAR 05 2015

Note: "FAIR" indicates few or no clouds below 12,000 feet
with no significant weather and/or obstructions to visibility.
 TC=TEMPERATURE CELSIUS

 * =Non NWS site. Station does not report precipitation (e.g. rain,
    snow, etc.), thunder, or fog.

DCZ001-MDZ009-015-VAZ040>042-051-053>054-050600-
WASHINGTON METRO

CITY           SKY/WX    TMP DP  RH WIND       PRES   REMARKS
WASHINGTON NAT LGT RAIN  45  41  86 N7        29.97R FOG
DULLES         LGT RAIN  41  38  89 N8        29.96S FOG
ANDREWS AFB    LGT RAIN  42  42  99 N5        29.94R FOG
FT BELVOIR     LGT RAIN  44  43  95 VRB3      29.96R
QUANTICO       LGT RAIN  43  41  93 NE8       29.96S FOG
COLLEGE PARK*  CLOUDY    41  41 100 CALM      29.96R
LEESBURG*      LGT RAIN  41  41 100 N9        29.97S
MANASSAS*      CLOUDY    43  43 100 N8        29.95S
GAITHERSBURG*  CLOUDY    39  36  87 NW7       29.99S

$$

MDZ006>007-011-014-050600-
BALTIMORE METRO

CITY           SKY/WX    TMP DP  RH WIND       PRES   REMARKS
BWI AIRPORT    LGT RAIN  39  38  96 CALM      29.94S FOG
MD SCIENCE CTR   N/A     42  41  96 MISG      29.95F
MARTIN STATE   LGT RAIN  37  37 100 CALM      29.97R VSB 1/4
ANNAPOLIS      LGT RAIN  40  39  97 N3        29.94S FOG
FORT MEADE*    CLOUDY    37  37 100 CALM      29.97S VSB 1/2

$$

MDZ012-015-019>023-050600-
MARYLAND EASTERN SHORE

CITY           SKY/WX    TMP DP  RH WIND       PRES   REMARKS
OCEAN CITY     LGT RAIN  43  43 100 CALM      29.91S VSB 1/4
SALISBURY      CLOUDY    50  47  89 CALM      29.90F FOG
BAY BRIDGE AP* RAIN      37  37 100 N3        29.95F VSB 1
CAMBRIDGE*     CLOUDY    45  41  87 N6        29.92S
EASTON*        HVY RAIN  43  43 100 NE3       29.98R

$$

MDZ017>025-050600-
SOUTHERN MARYLAND

CITY           SKY/WX    TMP DP  RH WIND       PRES   REMARKS
PATUXENT RIVER LGT RAIN  42  41  96 NW7       29.93R
ST INIGOES     LGT RAIN  44  41  89 N7        29.92R FOG
LEONARDTOWN*   CLOUDY    43  43 100 CALM      29.94F

$$

MDZ003>005-050600-
NORTH CENTRAL MARYLAND

CITY           SKY/WX    TMP DP  RH WIND       PRES   REMARKS
FREDERICK*     RAIN      39  36  87 N3        30.00R
HAGERSTOWN APT LGT RAIN  37  34  89 NW5       29.98R
WESTMINSTER*   LGT RAIN  37  37 100 NW5       29.95S

$$

MDZ501>502-050600-
WESTERN MARYLAND

CITY           SKY/WX    TMP DP  RH WIND       PRES   REMARKS
OAKLAND*         N/A     28 N/A N/A NW8       29.92F FOG     WCI  20
CUMBERLAND*    CLOUDY    37  32  81 N5        30.02F

$$

VAZ025>031-050600-
SHENANDOAH VALLEY

CITY           SKY/WX    TMP DP  RH WIND       PRES   REMARKS
WINCHESTER*    LGT RAIN  41  36  81 N6        29.97R
FRONT ROYAL*   CLOUDY    41  39  93 NE5       29.95S
LURAY*         LGT RAIN  45  45 100 NE6       29.93S
NEW MARKET*    CLOUDY    39  39 100 CALM      29.93F VSB 1/4
STAUNTON*      LGT RAIN  43  42  96 CALM      29.93F VSB 1
WAYNESBORO*    CLOUDY    45  45 100 NW5       29.91S

$$

WVZ021-048>050-054>055-050600-
EASTERN WEST VIRGINIA PANHANDLE

CITY           SKY/WX    TMP DP  RH WIND       PRES   REMARKS
MARTINSBURG    LGT RAIN  40  35  83 N5        29.98R
PETERSBURG*    NOT AVBL

$$

VAZ036>039-050-050600-
CENTRAL FOOTHILLS

CITY           SKY/WX    TMP DP  RH WIND       PRES   REMARKS
CHARLOTTESVILL LGT RAIN  45  44  97 E7        29.91F VSB 3/4
CULPEPER*      LGT RAIN  45  45 100 CALM      29.95S
ORANGE*        HVY RAIN  45  45 100 N7        29.94F
GORDONSVILLE*  CLOUDY    44  44  99 NE7       29.92F
WARRENTON*     DRIZZLE   44  44 100 NE6       29.94F

$$

VAZ055>057-050600-
NORTH AND CENTRAL PIEDMONT

CITY           SKY/WX    TMP DP  RH WIND       PRES   REMARKS
FREDERICKSBRG* RAIN      47  47 100 N6        29.95R
STAFFORD*      RAIN      44  32  62 N6        29.98F

$$

NCZ024-NYZ072-PAZ021-071-VAZ022-071-050600-
OTHER REGIONAL OBSERVATIONS

CITY           SKY/WX    TMP DP  RH WIND       PRES   REMARKS
NEW YORK CITY  LGT RAIN  40  37  89 W8        29.92S FOG
PHILADELPHIA   LGT RAIN  40  38  93 NW6       29.94F FOG
PITTSBURGH     LGT SNOW  28  26  92 NW12      30.05S VSB 1   WCI  18
ROANOKE        CLOUDY    46  45  96 CALM      29.94F
RICHMOND       CLOUDY    52  50  93 N5        29.90F FOG
RALEIGH        MOCLDY    66  55  67 SW18G26   29.88F

$$

ANZ530>537-050600-
MARINE OBSERVATIONS

STATION/POSITION TIME  TEMP    WIND        PRES
                       AIR SEA DIR/SP/G
                 (UTC) (F)     (DEG/KT/KT) (MB)
THOMAS PT LIGHT  0500   41 32  360/ 10/ 10 1015.1R
BALT KEY BRIDGE  0400   41     320/  5/  5 1014.3R
COVE POINT       0400   37     350/ 15/ 16 1013.2R
LEWISETTA        0400   44 34     CALM     1012.8R
SOLOMONS ISLAND  0400      33                N/A

$$



USA.gov is the U.S. government's official web portal to all federal, state and local government web resources and services.